Regional Weather Roundup
Issued by NWS Northern Indiana

Home | Current Version | Previous Version | Graphics & Text | Print | Product List | Glossary On
Versions: 1 2 3 4 5 6 7 8 9 10 11 12 13 14 15 16 17 18 19 20 21 22 23 24 25 26 27 28 29 30 31 32 33 34 35 36 37 38 39 40 41 42 43 44 45 46 47 48 49 50
000
ASUS43 KIWX 030800
RWRIWX

KIWX WEATHER ROUNDUP
NATIONAL WEATHER SERVICE NORTHERN INDIANA
400 AM EDT SUN MAY 03 2015

NOTE: "FAIR" INDICATES FEW OR NO CLOUDS BELOW 12,000 FEET WITH NO
SIGNIFICANT WEATHER AND/OR OBSTRUCTIONS TO VISIBILITY.

* THESE STATIONS ARE NOT UNDER NWS QUALITY CONTROL. THEY ALSO MAY NOT
  REPORT WEATHER SUCH AS PRECIPITATION OR FOG.

INZ001>027-030900-
NORTHERN INDIANA

CITY           SKY/WX    TMP DP  RH WIND       PRES   REMARKS
SOUTH BEND     PTCLDY    56  39  53 SW7       30.02S
GOSHEN         PTCLDY    55  41  59 SW7       30.02S
ANGOLA*        CLEAR     48  45  87 CALM      30.03S
FORT WAYNE     MOCLDY    51  43  74 S3        30.04S
PERU/GRISSOM   CLOUDY    53  44  72 S7        30.02S

$$
INZ028>050-030900-
CENTRAL INDIANA

CITY           SKY/WX    TMP DP  RH WIND       PRES   REMARKS
LAFAYETTE      MOCLDY    52  42  69 CALM      30.03S
MUNCIE*        MOCLDY    56  44  64 S5        30.05S
INDIANAPOLIS   CLOUDY    56  43  61 S3        30.04R

$$
MIZ043>046-050>051-056>058-064>065-071>073-077>080-030900-
SOUTHWEST LOWER MICHIGAN

CITY           SKY/WX    TMP DP  RH WIND       PRES   REMARKS
BATTLE CREEK   CLEAR     54  39  57 SW8       30.00F
BENTON HARBOR  PTCLDY    55  39  54 S3        29.99S
COLDWATER*     PTCLDY    54  39  56 SW6       30.01S
HILLSDALE*     PTCLDY    59  39  47 SW5       30.03R
HOLLAND        CLEAR     55  38  52 SW5       29.98S
GRAND RAPIDS   CLEAR     55  37  50 S8        29.98S
KALAMAZOO      PTCLDY    49  41  74 S7        30.00S
STURGIS*       PTCLDY    54  39  58 CALM      30.01F
THREE RIVERS*  FAIR      54  41  61 SW5       30.01F

$$
OHZ001>008-015>018-024>025-030900-
NORTHWEST OHIO

CITY           SKY/WX    TMP DP  RH WIND       PRES   REMARKS
DEFIANCE       PTCLDY    51  42  71 SW3       30.04R
FINDLAY        PTCLDY    54  42  64 S5        30.04R
TOLEDO EXPRESS CLEAR     49  41  74 CALM      30.03R
TOLEDO METCALF CLEAR     53  41  63 SW5       30.04R
LIMA           PTCLDY    52  42  69 CALM      30.05R

$$
AND FOR LAKE MICHIGAN COASTAL AND OPEN LAKE BUOY OBSERVATIONS

STATION/POSITION TEMP    WIND        PRES    VSBY  WAVE
                 AIR SEA DIR/SP/G                  HT/PER
                 (F)     (DEG/KT/KT) (MB)    (MI)  (FT/S)
CALUMET HARBOR    62     190/  5/  7   N/A
MICHIGAN CITY     63     170/ 13/ 17   N/A
BURNS HARBOR      59     180/ 10/ 11 1015.9S
SAINT JOSEPH      66     170/ 10/ 17 1016.3R
4 MI NW BRIDGMAN  55 49  220/  6/  8   N/A           1
MICHIGAN CITY     56 51  210/  6/  6   N/A           1

$$
&&


USA.gov is the U.S. government's official web portal to all federal, state and local government web resources and services.